,,,PA_Meas_PMT16A,,PR_Meas_QMR101_102,,RH_Meas_QMH101,,SR_Meas_QMS101,,TA_Meas_QMH101,,GenWind,,GenWind,
date,time,status,PA,status,PR,status,RH,status,SR,status,TA,status,DirAvg,status,SpdAvg,
2012-05-02, 00:00:05,VALID,1009.35,VALID,0,VALID,104,VALID,0,VALID,25.0973,VALID,189,VALID,0,
2012-05-02, 00:01:05,VALID,1009.36,VALID,0,VALID,104,VALID,0,VALID,25.0973,VALID,189,VALID,0,
2012-05-02, 00:02:05,VALID,1009.36,VALID,0,VALID,104,VALID,0,VALID,25.1167,VALID,189,VALID,0,
2012-05-02, 00:03:05,VALID,1009.37,VALID,0,VALID,104,VALID,0,VALID,25.0973,VALID,189,VALID,0,
2012-05-02, 00:04:05,VALID,1009.37,VALID,0,VALID,104,VALID,0.112112,VALID,25.0954,VALID,189,VALID,0,
2012-05-02, 00:05:05,VALID,1009.37,VALID,0,VALID,104,VALID,0,VALID,25.1148,VALID,189,VALID,0,
2012-05-02, 00:06:05,VALID,1009.38,VALID,0,VALID,104,VALID,0,VALID,25.1362,VALID,189,VALID,0,
2012-05-02, 00:07:05,VALID,1009.37,VALID,0,VALID,104,VALID,0,VALID,25.1362,VALID,189,VALID,0,
2012-05-02, 00:08:05,VALID,1009.38,VALID,0,VALID,104,VALID,0,VALID,25.1362,VALID,189,VALID,0,
2012-05-02, 00:09:05,VALID,1009.38,VALID,0,VALID,104,VALID,0,VALID,25.1557,VALID,189,VALID,0,
2012-05-02, 00:10:05,VALID,1009.37,VALID,0,VALID,104,VALID,0,VALID,25.1343,VALID,189,VALID,0,
2012-05-02, 00:11:05,VALID,1009.37,VALID,0,VALID,104,VALID,0,VALID,25.1167,VALID,189,VALID,0,
2012-05-02, 00:12:05,VALID,1009.34,VALID,0,VALID,104,VALID,0,VALID,25.0954,VALID,189,VALID,0,
2012-05-02, 00:13:05,VALID,1009.36,VALID,0,VALID,104,VALID,0.112112,VALID,25.0954,VALID,189,VALID,0,
2012-05-02, 00:14:05,VALID,1009.32,VALID,0,VALID,104,VALID,0,VALID,25.0973,VALID,189,VALID,0,
2012-05-02, 00:15:05,VALID,1009.3,VALID,0,VALID,104,VALID,0,VALID,25.1167,VALID,189,VALID,0,
2012-05-02, 00:16:05,VALID,1009.28,VALID,0,VALID,104,VALID,0,VALID,25.0973,VALID,189,VALID,0,
2012-05-02, 00:17:05,VALID,1009.27,VALID,0,VALID,104,VALID,0,VALID,25.0564,VALID,189,VALID,0,
2012-05-02, 00:18:05,VALID,1009.27,VALID,0,VALID,104,VALID,0,VALID,25.0778,VALID,189,VALID,0,
2012-05-02, 00:19:05,VALID,1009.26,VALID,0,VALID,104,VALID,0,VALID,25.0778,VALID,189,VALID,0,
2012-05-02, 00:20:05,VALID,1009.25,VALID,0,VALID,104,VALID,0,VALID,25.0369,VALID,189,VALID,0,
2012-05-02, 00:21:05,VALID,1009.25,VALID,0,VALID,104,VALID,0,VALID,25.0388,VALID,189,VALID,0,
2012-05-02, 00:22:05,VALID,1009.22,VALID,0,VALID,104,VALID,0.112112,VALID,25.0388,VALID,189,VALID,0,
2012-05-02, 00:23:05,VALID,1009.23,VALID,0,VALID,104,VALID,0,VALID,25.0193,VALID,189,VALID,0,
2012-05-02, 00:24:05,VALID,1009.25,VALID,0,VALID,104,VALID,0,VALID,25.0388,VALID,189,VALID,0,
2012-05-02, 00:25:05,VALID,1009.22,VALID,0,VALID,104,VALID,0.112112,VALID,25.0388,VALID,189,VALID,0,
2012-05-02, 00:26:05,VALID,1009.23,VALID,0,VALID,104,VALID,0,VALID,25.0388,VALID,189,VALID,0,
2012-05-02, 00:27:05,VALID,1009.24,VALID,0,VALID,104,VALID,0,VALID,25.0369,VALID,189,VALID,0,
2012-05-02, 00:28:05,VALID,1009.22,VALID,0,VALID,104,VALID,0,VALID,25.0583,VALID,189,VALID,0,
2012-05-02, 00:29:05,VALID,1009.22,VALID,0,VALID,104,VALID,0,VALID,25.0778,VALID,189,VALID,0,
2012-05-02, 00:30:05,VALID,1009.21,VALID,0,VALID,104,VALID,0,VALID,25.0778,VALID,189,VALID,0,
2012-05-02, 00:31:05,VALID,1009.22,VALID,0,VALID,104,VALID,0,VALID,25.0564,VALID,189,VALID,0,
2012-05-02, 00:32:05,VALID,1009.22,VALID,0,VALID,104,VALID,0,VALID,25.0973,VALID,189,VALID,0,
2012-05-02, 00:33:05,VALID,1009.22,VALID,0,VALID,104,VALID,0,VALID,25.0778,VALID,189,VALID,0,
2012-05-02, 00:34:05,VALID,1009.21,VALID,0,VALID,104,VALID,0,VALID,25.0759,VALID,189,VALID,0,
2012-05-02, 00:35:05,VALID,1009.19,VALID,0,VALID,104,VALID,0,VALID,25.0973,VALID,189,VALID,0,
2012-05-02, 00:36:05,VALID,1009.19,VALID,0,VALID,104,VALID,0,VALID,25.0759,VALID,189,VALID,0,
2012-05-02, 00:37:05,VALID,1009.21,VALID,0,VALID,104,VALID,0,VALID,25.0759,VALID,189,VALID,0,
2012-05-02, 00:38:05,VALID,1009.2,VALID,0,VALID,104,VALID,0,VALID,25.0973,VALID,189,VALID,0,
2012-05-02, 00:39:05,VALID,1009.18,VALID,0,VALID,104,VALID,0,VALID,25.0778,VALID,189,VALID,0,
2012-05-02, 00:40:05,VALID,1009.17,VALID,0,VALID,104,VALID,0,VALID,25.0759,VALID,189,VALID,0,
2012-05-02, 00:41:05,VALID,1009.17,VALID,0,VALID,104,VALID,0,VALID,25.0564,VALID,189,VALID,0,
2012-05-02, 00:42:05,VALID,1009.17,VALID,0,VALID,104,VALID,0,VALID,25.0778,VALID,189,VALID,0,
2012-05-02, 00:43:05,VALID,1009.19,VALID,0,VALID,104,VALID,0,VALID,25.0369,VALID,189,VALID,0,
2012-05-02, 00:44:05,VALID,1009.19,VALID,0,VALID,104,VALID,0,VALID,25.0564,VALID,189,VALID,0,
2012-05-02, 00:45:05,VALID,1009.16,VALID,0,VALID,104,VALID,0,VALID,25.0583,VALID,189,VALID,0,
2012-05-02, 00:46:05,VALID,1009.18,VALID,0,VALID,104,VALID,0.112112,VALID,25.0388,VALID,189,VALID,0,
2012-05-02, 00:47:05,VALID,1009.15,VALID,0,VALID,104,VALID,0,VALID,25.0193,VALID,189,VALID,0,
2012-05-02, 00:48:05,VALID,1009.14,VALID,0,VALID,104,VALID,0,VALID,24.9784,VALID,189,VALID,0,
2012-05-02, 00:49:05,VALID,1009.12,VALID,0,VALID,104,VALID,0,VALID,24.9998,VALID,189,VALID,0,
2012-05-02, 00:50:05,VALID,1009.08,VALID,0,VALID,104,VALID,0.112112,VALID,24.9998,VALID,189,VALID,0,
2012-05-02, 00:51:05,VALID,1009.07,VALID,0,VALID,104,VALID,0.112112,VALID,24.9784,VALID,189,VALID,0.130859,
2012-05-02, 00:52:05,VALID,1009.02,VALID,0,VALID,104,VALID,0.112112,VALID,25.0193,VALID,189,VALID,0.158203,
2012-05-02, 00:53:05,VALID,1009,VALID,0,VALID,104,VALID,0.112112,VALID,25.0193,VALID,189,VALID,0.325,
2012-05-02, 00:54:05,VALID,1008.97,VALID,0,VALID,104,VALID,0.112112,VALID,25.0388,VALID,189,VALID,0.416797,
2012-05-02, 00:55:05,VALID,1008.93,VALID,0,VALID,104,VALID,0,VALID,25.0193,VALID,189,VALID,0.369531,
2012-05-02, 00:56:05,VALID,1008.94,VALID,0,VALID,104,VALID,0,VALID,25.0174,VALID,189,VALID,0.279687,
2012-05-02, 00:57:05,VALID,1008.89,VALID,0,VALID,104,VALID,0,VALID,25.0778,VALID,189,VALID,0.320313,
2012-05-02, 00:58:05,VALID,1008.9,VALID,0,VALID,104,VALID,0.112112,VALID,25.0973,VALID,189,VALID,0.126172,
2012-05-02, 00:59:05,VALID,1008.85,VALID,0,VALID,104,VALID,0,VALID,25.1167,VALID,189,VALID,0,
2012-05-02, 01:00:05,VALID,1008.87,VALID,0,VALID,104,VALID,0,VALID,25.1362,VALID,189,VALID,0.291406,
2012-05-02, 01:01:05,VALID,1008.84,VALID,0,VALID,104,VALID,0,VALID,25.1557,VALID,189,VALID,0.238672,
2012-05-02, 01:02:05,VALID,1008.88,VALID,0,VALID,104,VALID,0,VALID,25.1752,VALID,189,VALID,0.315234,
2012-05-02, 01:03:05,VALID,1008.86,VALID,0,VALID,104,VALID,0,VALID,25.1557,VALID,189,VALID,0.612891,
2012-05-02, 01:04:05,VALID,1008.88,VALID,0,VALID,104,VALID,0,VALID,25.1557,VALID,179,VALID,0.530469,
2012-05-02, 01:05:05,VALID,1008.85,VALID,0,VALID,104,VALID,0,VALID,25.1947,VALID,130,VALID,0.725,
2012-05-02, 01:06:05,VALID,1008.83,VALID,0,VALID,104,VALID,0,VALID,25.1538,VALID,131,VALID,0.761328,
2012-05-02, 01:07:05,VALID,1008.84,VALID,0,VALID,104,VALID,0.112112,VALID,25.1947,VALID,132,VALID,0.903906,
2012-05-02, 01:08:05,VALID,1008.83,VALID,0,VALID,104,VALID,0,VALID,25.2142,VALID,132,VALID,0.613672,
2012-05-02, 01:09:05,VALID,1008.79,VALID,0,VALID,104,VALID,0,VALID,25.2142,VALID,132,VALID,0.525781,
2012-05-02, 01:10:05,VALID,1008.81,VALID,0,VALID,104,VALID,0,VALID,25.2142,VALID,132,VALID,0.653125,
2012-05-02, 01:11:05,VALID,1008.75,VALID,0,VALID,104,VALID,0,VALID,25.1928,VALID,132,VALID,0.578125,
2012-05-02, 01:12:05,VALID,1008.78,VALID,0,VALID,104,VALID,0,VALID,25.2142,VALID,132,VALID,0.369922,
2012-05-02, 01:13:05,VALID,1008.76,VALID,0,VALID,104,VALID,0,VALID,25.2142,VALID,132,VALID,0.221875,
2012-05-02, 01:14:05,VALID,1008.76,VALID,0,VALID,104,VALID,0,VALID,25.2142,VALID,132,VALID,0.476563,
2012-05-02, 01:15:05,VALID,1008.76,VALID,0,VALID,104,VALID,0,VALID,25.2142,VALID,132,VALID,0.324609,
2012-05-02, 01:16:05,VALID,1008.72,VALID,0,VALID,104,VALID,0,VALID,25.2142,VALID,132,VALID,0.330859,
2012-05-02, 01:17:05,VALID,1008.76,VALID,0,VALID,104,VALID,0,VALID,25.1928,VALID,132,VALID,0.271094,
2012-05-02, 01:18:05,VALID,1008.72,VALID,0,VALID,104,VALID,0,VALID,25.1928,VALID,132,VALID,0.236328,
2012-05-02, 01:19:05,VALID,1008.75,VALID,0,VALID,104,VALID,0,VALID,25.2142,VALID,132,VALID,0.240234,
2012-05-02, 01:20:05,VALID,1008.72,VALID,0,VALID,104,VALID,0,VALID,25.2123,VALID,132,VALID,0.340625,
2012-05-02, 01:21:05,VALID,1008.74,VALID,0,VALID,104,VALID,0,VALID,25.2337,VALID,132,VALID,0.0941406,
2012-05-02, 01:22:05,VALID,1008.72,VALID,0,VALID,104,VALID,0,VALID,25.2142,VALID,132,VALID,0,
2012-05-02, 01:23:05,VALID,1008.75,VALID,0,VALID,104,VALID,0,VALID,25.2142,VALID,132,VALID,0,
2012-05-02, 01:24:05,VALID,1008.76,VALID,0,VALID,104,VALID,0,VALID,25.2142,VALID,132,VALID,0,
2012-05-02, 01:25:05,VALID,1008.77,VALID,0,VALID,104,VALID,0.112112,VALID,25.1733,VALID,132,VALID,0,
2012-05-02, 01:26:05,VALID,1008.77,VALID,0,VALID,104,VALID,0,VALID,25.1947,VALID,132,VALID,0.290625,
2012-05-02, 01:27:05,VALID,1008.76,VALID,0,VALID,104,VALID,0,VALID,25.1557,VALID,132,VALID,0.421094,
2012-05-02, 01:28:05,VALID,1008.78,VALID,0,VALID,104,VALID,0,VALID,25.0973,VALID,132,VALID,0.278906,
2012-05-02, 01:29:05,VALID,1008.78,VALID,0,VALID,104,VALID,0,VALID,25.0369,VALID,132,VALID,0.418359,
2012-05-02, 01:30:05,VALID,1008.75,VALID,0,VALID,104,VALID,0,VALID,24.9979,VALID,46,VALID,0.569922,
2012-05-02, 01:31:05,VALID,1008.75,VALID,0,VALID,104,VALID,0,VALID,24.9784,VALID,46,VALID,0.467969,
2012-05-02, 01:32:05,VALID,1008.7,VALID,0,VALID,104,VALID,0,VALID,24.9413,VALID,46,VALID,0.527344,
2012-05-02, 01:33:05,VALID,1008.71,VALID,0,VALID,104,VALID,0,VALID,24.9608,VALID,46,VALID,0.414063,
2012-05-02, 01:34:05,VALID,1008.73,VALID,0,VALID,104,VALID,0,VALID,24.9413,VALID,46,VALID,0.500781,
2012-05-02, 01:35:05,VALID,1008.71,VALID,0,VALID,104,VALID,0,VALID,24.9413,VALID,46,VALID,0.460547,
2012-05-02, 01:36:05,VALID,1008.73,VALID,0,VALID,104,VALID,0,VALID,24.9004,VALID,46,VALID,0.239844,
2012-05-02, 01:37:05,VALID,1008.72,VALID,0,VALID,104,VALID,0.112112,VALID,24.9023,VALID,46,VALID,0.0164062,
2012-05-02, 01:38:05,VALID,1008.74,VALID,0,VALID,104,VALID,0,VALID,24.9023,VALID,46,VALID,0,
2012-05-02, 01:39:05,VALID,1008.74,VALID,0,VALID,104,VALID,0.112112,VALID,24.8633,VALID,46,VALID,0,
2012-05-02, 01:40:05,VALID,1008.74,VALID,0,VALID,104,VALID,0,VALID,24.8225,VALID,46,VALID,0.025,
2012-05-02, 01:41:05,VALID,1008.75,VALID,0,VALID,104,VALID,0,VALID,24.8438,VALID,46,VALID,0,
2012-05-02, 01:42:05,VALID,1008.75,VALID,0,VALID,104,VALID,0,VALID,24.8244,VALID,46,VALID,0,
2012-05-02, 01:43:05,VALID,1008.73,VALID,0,VALID,104,VALID,0,VALID,24.7835,VALID,46,VALID,0,
2012-05-02, 01:44:05,VALID,1008.75,VALID,0,VALID,104,VALID,0,VALID,24.764,VALID,46,VALID,0,
2012-05-02, 01:45:05,VALID,1008.75,VALID,0,VALID,104,VALID,0,VALID,24.8049,VALID,46,VALID,0,
2012-05-02, 01:46:05,VALID,1008.73,VALID,0,VALID,104,VALID,0.112112,VALID,24.7835,VALID,46,VALID,0.207031,
2012-05-02, 01:47:05,VALID,1008.72,VALID,0,VALID,104,VALID,0,VALID,24.7835,VALID,46,VALID,0.260547,
2012-05-02, 01:48:05,VALID,1008.74,VALID,0,VALID,104,VALID,0.112112,VALID,24.7835,VALID,46,VALID,0.166797,
2012-05-02, 01:49:05,VALID,1008.73,VALID,0,VALID,104,VALID,0,VALID,24.8049,VALID,46,VALID,0.139844,
2012-05-02, 01:50:05,VALID,1008.71,VALID,0,VALID,104,VALID,0,VALID,24.8244,VALID,46,VALID,0.192578,
2012-05-02, 01:51:05,VALID,1008.72,VALID,0,VALID,104,VALID,0,VALID,24.8438,VALID,46,VALID,0,
2012-05-02, 01:52:05,VALID,1008.72,VALID,0,VALID,104,VALID,0,VALID,24.8244,VALID,46,VALID,0,
2012-05-02, 01:53:05,VALID,1008.72,VALID,0,VALID,104,VALID,0.112112,VALID,24.803,VALID,46,VALID,0,
2012-05-02, 01:54:05,VALID,1008.69,VALID,0,VALID,104,VALID,0,VALID,24.8244,VALID,46,VALID,0,
2012-05-02, 01:55:05,VALID,1008.68,VALID,0,VALID,104,VALID,0,VALID,24.8244,VALID,46,VALID,0,
2012-05-02, 01:56:04,VALID,1008.67,VALID,0,VALID,104,VALID,0.112112,VALID,24.8049,VALID,46,VALID,0,
2012-05-02, 01:57:04,VALID,1008.65,VALID,0,VALID,104,VALID,0,VALID,24.803,VALID,46,VALID,0,
2012-05-02, 01:58:04,VALID,1008.65,VALID,0,VALID,104,VALID,0.112112,VALID,24.8244,VALID,46,VALID,0,
2012-05-02, 01:59:04,VALID,1008.62,VALID,0,VALID,104,VALID,0.112112,VALID,24.8244,VALID,46,VALID,0,
2012-05-02, 02:00:04,VALID,1008.62,VALID,0,VALID,104,VALID,0,VALID,24.8244,VALID,46,VALID,0,
2012-05-02, 02:01:04,VALID,1008.65,VALID,0,VALID,104,VALID,0,VALID,24.8049,VALID,46,VALID,0,
2012-05-02, 02:02:04,VALID,1008.62,VALID,0,VALID,104,VALID,0,VALID,24.8244,VALID,46,VALID,0.151562,
2012-05-02, 02:03:04,VALID,1008.6,VALID,0,VALID,104,VALID,0.112112,VALID,24.7835,VALID,46,VALID,0.117969,
2012-05-02, 02:04:04,VALID,1008.62,VALID,0,VALID,104,VALID,0,VALID,24.8049,VALID,46,VALID,0,
2012-05-02, 02:05:04,VALID,1008.59,VALID,0,VALID,104,VALID,0,VALID,24.7835,VALID,46,VALID,0,
2012-05-02, 02:06:04,VALID,1008.57,VALID,0,VALID,104,VALID,0,VALID,24.7854,VALID,46,VALID,0,
2012-05-02, 02:07:04,VALID,1008.54,VALID,0,VALID,104,VALID,0,VALID,24.764,VALID,46,VALID,0,
2012-05-02, 02:08:04,VALID,1008.54,VALID,0,VALID,104,VALID,0.112112,VALID,24.7659,VALID,46,VALID,0,
2012-05-02, 02:09:04,VALID,1008.52,VALID,0,VALID,104,VALID,0.112112,VALID,24.725,VALID,46,VALID,0,
2012-05-02, 02:10:04,VALID,1008.51,VALID,0,VALID,104,VALID,0,VALID,24.725,VALID,46,VALID,0,
2012-05-02, 02:11:04,VALID,1008.48,VALID,0,VALID,104,VALID,0.112112,VALID,24.7269,VALID,46,VALID,0,
2012-05-02, 02:12:04,VALID,1008.46,VALID,0,VALID,104,VALID,0,VALID,24.686,VALID,46,VALID,0,
2012-05-02, 02:13:04,VALID,1008.44,VALID,0,VALID,104,VALID,0.112112,VALID,24.6666,VALID,46,VALID,0,
2012-05-02, 02:14:04,VALID,1008.41,VALID,0,VALID,104,VALID,0,VALID,24.6879,VALID,46,VALID,0,
2012-05-02, 02:15:04,VALID,1008.44,VALID,0,VALID,104,VALID,0.112112,VALID,24.6684,VALID,46,VALID,0,
2012-05-02, 02:16:04,VALID,1008.4,VALID,0,VALID,104,VALID,0.112112,VALID,24.6471,VALID,46,VALID,0,
2012-05-02, 02:17:04,VALID,1008.4,VALID,0,VALID,104,VALID,0.112112,VALID,24.6471,VALID,46,VALID,0,
2012-05-02, 02:18:04,VALID,1008.38,VALID,0,VALID,104,VALID,0,VALID,24.6489,VALID,46,VALID,0,
2012-05-02, 02:19:04,VALID,1008.4,VALID,0,VALID,104,VALID,0.112112,VALID,24.6471,VALID,46,VALID,0,
2012-05-02, 02:20:04,VALID,1008.36,VALID,0,VALID,104,VALID,0,VALID,24.6684,VALID,46,VALID,0,
2012-05-02, 02:21:04,VALID,1008.36,VALID,0,VALID,104,VALID,0.112112,VALID,24.6666,VALID,46,VALID,0,
2012-05-02, 02:22:04,VALID,1008.34,VALID,0,VALID,104,VALID,0.112112,VALID,24.686,VALID,46,VALID,0,
2012-05-02, 02:23:04,VALID,1008.33,VALID,0,VALID,104,VALID,0,VALID,24.6666,VALID,46,VALID,0,
2012-05-02, 02:24:04,VALID,1008.33,VALID,0,VALID,104,VALID,0,VALID,24.6666,VALID,46,VALID,0,
2012-05-02, 02:25:04,VALID,1008.3,VALID,0,VALID,104,VALID,0.112112,VALID,24.6684,VALID,46,VALID,0,
2012-05-02, 02:26:04,VALID,1008.32,VALID,0,VALID,104,VALID,0.112112,VALID,24.6666,VALID,46,VALID,0,
2012-05-02, 02:27:04,VALID,1008.27,VALID,0,VALID,104,VALID,0.112112,VALID,24.6684,VALID,46,VALID,0,
2012-05-02, 02:28:04,VALID,1008.27,VALID,0,VALID,104,VALID,0.112112,VALID,24.6489,VALID,46,VALID,0,
2012-05-02, 02:29:04,VALID,1008.29,VALID,0,VALID,104,VALID,0.112112,VALID,24.6471,VALID,46,VALID,0,
2012-05-02, 02:30:04,VALID,1008.29,VALID,0,VALID,104,VALID,0.112112,VALID,24.6471,VALID,46,VALID,0,
2012-05-02, 02:31:04,VALID,1008.29,VALID,0,VALID,104,VALID,0.112112,VALID,24.6276,VALID,46,VALID,0,
2012-05-02, 02:32:04,VALID,1008.3,VALID,0,VALID,104,VALID,0,VALID,24.6489,VALID,46,VALID,0.151953,
2012-05-02, 02:33:04,VALID,1008.31,VALID,0,VALID,104,VALID,0,VALID,24.6489,VALID,46,VALID,0.185547,
2012-05-02, 02:34:04,VALID,1008.3,VALID,0,VALID,104,VALID,0.112112,VALID,24.6489,VALID,46,VALID,0.0699219,
2012-05-02, 02:35:04,VALID,1008.27,VALID,0,VALID,104,VALID,0,VALID,24.6684,VALID,46,VALID,0,
2012-05-02, 02:36:04,VALID,1008.27,VALID,0,VALID,104,VALID,0.112112,VALID,24.6684,VALID,46,VALID,0,
2012-05-02, 02:37:04,VALID,1008.25,VALID,0,VALID,104,VALID,0,VALID,24.6666,VALID,46,VALID,0,
2012-05-02, 02:38:04,VALID,1008.22,VALID,0,VALID,104,VALID,0,VALID,24.6489,VALID,46,VALID,0,
2012-05-02, 02:39:04,VALID,1008.23,VALID,0,VALID,104,VALID,0.112112,VALID,24.6666,VALID,46,VALID,0,
2012-05-02, 02:40:04,VALID,1008.17,VALID,0,VALID,104,VALID,0.112112,VALID,24.6471,VALID,46,VALID,0,
2012-05-02, 02:41:04,VALID,1008.19,VALID,0,VALID,104,VALID,0,VALID,24.6471,VALID,46,VALID,0,
2012-05-02, 02:42:04,VALID,1008.17,VALID,0,VALID,104,VALID,0,VALID,24.6684,VALID,46,VALID,0,
2012-05-02, 02:43:04,VALID,1008.18,VALID,0,VALID,104,VALID,0.112112,VALID,24.6294,VALID,46,VALID,0,
2012-05-02, 02:44:04,VALID,1008.17,VALID,0,VALID,104,VALID,0,VALID,24.6294,VALID,46,VALID,0,
2012-05-02, 02:45:04,VALID,1008.19,VALID,0,VALID,104,VALID,0.112112,VALID,24.5886,VALID,46,VALID,0,
2012-05-02, 02:46:04,VALID,1008.21,VALID,0,VALID,104,VALID,0,VALID,24.6099,VALID,46,VALID,0,
2012-05-02, 02:47:04,VALID,1008.22,VALID,0,VALID,104,VALID,0.112112,VALID,24.6081,VALID,46,VALID,0.084375,
2012-05-02, 02:48:04,VALID,1008.24,VALID,0,VALID,104,VALID,0.112112,VALID,24.6099,VALID,46,VALID,0.272656,
2012-05-02, 02:49:04,VALID,1008.25,VALID,0,VALID,104,VALID,0.112112,VALID,24.5691,VALID,46,VALID,0.183594,
2012-05-02, 02:50:04,VALID,1008.26,VALID,0,VALID,104,VALID,0,VALID,24.532,VALID,46,VALID,0.18125,
2012-05-02, 02:51:04,VALID,1008.27,VALID,0,VALID,104,VALID,0.112112,VALID,24.4522,VALID,46,VALID,0.227344,
2012-05-02, 02:52:04,VALID,1008.28,VALID,0,VALID,104,VALID,0,VALID,24.4327,VALID,46,VALID,0.183203,
2012-05-02, 02:53:04,VALID,1008.27,VALID,0,VALID,104,VALID,0,VALID,24.3937,VALID,46,VALID,0.192188,
2012-05-02, 02:54:04,VALID,1008.26,VALID,0,VALID,104,VALID,0,VALID,24.415,VALID,46,VALID,0.0359375,
2012-05-02, 02:55:04,VALID,1008.26,VALID,0,VALID,104,VALID,0,VALID,24.3742,VALID,46,VALID,0,
2012-05-02, 02:56:04,VALID,1008.23,VALID,0,VALID,104,VALID,0,VALID,24.3761,VALID,46,VALID,0,
2012-05-02, 02:57:04,VALID,1008.23,VALID,0,VALID,104,VALID,0,VALID,24.3761,VALID,46,VALID,0,
2012-05-02, 02:58:04,VALID,1008.24,VALID,0,VALID,104,VALID,0,VALID,24.3742,VALID,46,VALID,0,
2012-05-02, 02:59:04,VALID,1008.21,VALID,0,VALID,104,VALID,0,VALID,24.4345,VALID,46,VALID,0.125,
2012-05-02, 03:00:04,VALID,1008.2,VALID,0,VALID,104,VALID,0,VALID,24.3937,VALID,46,VALID,0,
2012-05-02, 03:01:04,VALID,1008.19,VALID,0,VALID,104,VALID,0,VALID,24.3956,VALID,46,VALID,0,
2012-05-02, 03:02:04,VALID,1008.19,VALID,0,VALID,104,VALID,0,VALID,24.3956,VALID,46,VALID,0,
2012-05-02, 03:03:04,VALID,1008.17,VALID,0,VALID,104,VALID,0,VALID,24.4345,VALID,46,VALID,0,
2012-05-02, 03:04:04,VALID,1008.18,VALID,0,VALID,104,VALID,0,VALID,24.454,VALID,46,VALID,0,
2012-05-02, 03:05:04,VALID,1008.19,VALID,0,VALID,104,VALID,0,VALID,24.4522,VALID,46,VALID,0,
2012-05-02, 03:06:04,VALID,1008.19,VALID,0,VALID,104,VALID,0,VALID,24.4735,VALID,46,VALID,0,
2012-05-02, 03:07:04,VALID,1008.21,VALID,0,VALID,104,VALID,0,VALID,24.4735,VALID,46,VALID,0,
2012-05-02, 03:08:04,VALID,1008.23,VALID,0,VALID,104,VALID,0,VALID,24.4735,VALID,46,VALID,0,
2012-05-02, 03:09:04,VALID,1008.22,VALID,0,VALID,104,VALID,0,VALID,24.4522,VALID,46,VALID,0,
2012-05-02, 03:10:04,VALID,1008.23,VALID,0,VALID,104,VALID,0,VALID,24.4735,VALID,46,VALID,0,
2012-05-02, 03:11:04,VALID,1008.25,VALID,0,VALID,104,VALID,0,VALID,24.5125,VALID,46,VALID,0,
2012-05-02, 03:12:04,VALID,1008.28,VALID,0,VALID,104,VALID,0,VALID,24.5125,VALID,46,VALID,0,
2012-05-02, 03:13:04,VALID,1008.25,VALID,0,VALID,104,VALID,0,VALID,24.5125,VALID,46,VALID,0,
2012-05-02, 03:14:04,VALID,1008.24,VALID,0,VALID,104,VALID,0,VALID,24.532,VALID,46,VALID,0,
2012-05-02, 03:15:04,VALID,1008.26,VALID,0,VALID,104,VALID,0,VALID,24.5125,VALID,46,VALID,0,
2012-05-02, 03:16:04,VALID,1008.28,VALID,0,VALID,104,VALID,0,VALID,24.493,VALID,46,VALID,0.26875,
2012-05-02, 03:17:04,VALID,1008.25,VALID,0,VALID,104,VALID,0,VALID,24.4735,VALID,46,VALID,0.310156,
2012-05-02, 03:18:04,VALID,1008.28,VALID,0,VALID,104,VALID,0,VALID,24.493,VALID,46,VALID,0.285156,
2012-05-02, 03:19:04,VALID,1008.29,VALID,0,VALID,104,VALID,0,VALID,24.4735,VALID,46,VALID,0.331641,
2012-05-02, 03:20:04,VALID,1008.29,VALID,0,VALID,104,VALID,0,VALID,24.5125,VALID,46,VALID,0.326172,
2012-05-02, 03:21:04,VALID,1008.31,VALID,0,VALID,104,VALID,0,VALID,24.5125,VALID,46,VALID,0.266406,
2012-05-02, 03:22:04,VALID,1008.33,VALID,0,VALID,104,VALID,0,VALID,24.5515,VALID,46,VALID,0.287109,
2012-05-02, 03:23:04,VALID,1008.34,VALID,0,VALID,104,VALID,0,VALID,24.571,VALID,46,VALID,0.239844,
2012-05-02, 03:24:04,VALID,1008.35,VALID,0,VALID,104,VALID,0,VALID,24.5905,VALID,46,VALID,0.128516,
2012-05-02, 03:25:04,VALID,1008.35,VALID,0,VALID,104,VALID,0,VALID,24.5905,VALID,46,VALID,0.114844,
2012-05-02, 03:26:04,VALID,1008.37,VALID,0,VALID,104,VALID,0,VALID,24.5905,VALID,46,VALID,0.235547,
2012-05-02, 03:27:04,VALID,1008.39,VALID,0,VALID,104,VALID,0,VALID,24.571,VALID,46,VALID,0,
2012-05-02, 03:28:04,VALID,1008.44,VALID,0,VALID,104,VALID,0,VALID,24.532,VALID,46,VALID,0,
2012-05-02, 03:29:04,VALID,1008.42,VALID,0,VALID,104,VALID,0,VALID,24.5125,VALID,46,VALID,0,
2012-05-02, 03:30:04,VALID,1008.46,VALID,0,VALID,104,VALID,0,VALID,24.5125,VALID,46,VALID,0,
2012-05-02, 03:31:04,VALID,1008.46,VALID,0,VALID,104,VALID,0,VALID,24.4735,VALID,46,VALID,0,
2012-05-02, 03:32:04,VALID,1008.46,VALID,0,VALID,104,VALID,0,VALID,24.4345,VALID,46,VALID,0.169922,
2012-05-02, 03:33:04,VALID,1008.46,VALID,0,VALID,104,VALID,0,VALID,24.4345,VALID,46,VALID,0.172656,
2012-05-02, 03:34:04,VALID,1008.48,VALID,0,VALID,104,VALID,0,VALID,24.415,VALID,46,VALID,0.353516,
2012-05-02, 03:35:04,VALID,1008.48,VALID,0,VALID,104,VALID,0,VALID,24.3956,VALID,46,VALID,0.264844,
2012-05-02, 03:36:04,VALID,1008.5,VALID,0,VALID,104,VALID,0,VALID,24.3566,VALID,46,VALID,0.314063,
2012-05-02, 03:37:04,VALID,1008.47,VALID,0,VALID,104,VALID,0,VALID,24.3371,VALID,46,VALID,0.321094,
2012-05-02, 03:38:04,VALID,1008.48,VALID,0,VALID,104,VALID,0,VALID,24.2981,VALID,46,VALID,0.318359,
2012-05-02, 03:39:04,VALID,1008.45,VALID,0,VALID,104,VALID,0,VALID,24.2768,VALID,46,VALID,0.29375,
2012-05-02, 03:40:04,VALID,1008.47,VALID,0,VALID,104,VALID,0,VALID,24.2378,VALID,46,VALID,0.0046875,
2012-05-02, 03:41:04,VALID,1008.45,VALID,0,VALID,104,VALID,0,VALID,24.1988,VALID,46,VALID,0,
2012-05-02, 03:42:04,VALID,1008.46,VALID,0,VALID,104,VALID,0,VALID,24.2007,VALID,46,VALID,0,
2012-05-02, 03:43:04,VALID,1008.45,VALID,0,VALID,104,VALID,0,VALID,24.1812,VALID,46,VALID,0,
2012-05-02, 03:44:04,VALID,1008.46,VALID,0,VALID,104,VALID,0,VALID,24.1404,VALID,46,VALID,0,
2012-05-02, 03:45:04,VALID,1008.43,VALID,0,VALID,104,VALID,0,VALID,24.1617,VALID,46,VALID,0,
2012-05-02, 03:46:04,VALID,1008.46,VALID,0,VALID,104,VALID,0,VALID,24.1422,VALID,46,VALID,0,
2012-05-02, 03:47:04,VALID,1008.44,VALID,0,VALID,104,VALID,0,VALID,24.1422,VALID,46,VALID,0,
2012-05-02, 03:48:04,VALID,1008.44,VALID,0,VALID,104,VALID,0,VALID,24.1209,VALID,46,VALID,0,
2012-05-02, 03:49:04,VALID,1008.43,VALID,0,VALID,104,VALID,0,VALID,24.1422,VALID,46,VALID,0,
2012-05-02, 03:50:04,VALID,1008.42,VALID,0,VALID,104,VALID,0,VALID,24.1617,VALID,46,VALID,0,
2012-05-02, 03:51:04,VALID,1008.43,VALID,0,VALID,104,VALID,0,VALID,24.1812,VALID,46,VALID,0,
2012-05-02, 03:52:04,VALID,1008.44,VALID,0,VALID,104,VALID,0.112112,VALID,24.1812,VALID,46,VALID,0,
2012-05-02, 03:53:04,VALID,1008.45,VALID,0,VALID,104,VALID,0,VALID,24.1812,VALID,46,VALID,0,
2012-05-02, 03:54:04,VALID,1008.44,VALID,0,VALID,104,VALID,0,VALID,24.1617,VALID,46,VALID,0,
2012-05-02, 03:55:04,VALID,1008.43,VALID,0,VALID,104,VALID,0,VALID,24.1617,VALID,46,VALID,0,
2012-05-02, 03:56:04,VALID,1008.45,VALID,0,VALID,104,VALID,0,VALID,24.1404,VALID,46,VALID,0,
2012-05-02, 03:57:04,VALID,1008.45,VALID,0,VALID,104,VALID,0,VALID,24.1422,VALID,46,VALID,0,
2012-05-02, 03:58:04,VALID,1008.48,VALID,0,VALID,104,VALID,0,VALID,24.1209,VALID,46,VALID,0,
2012-05-02, 03:59:04,VALID,1008.5,VALID,0,VALID,104,VALID,0,VALID,24.1227,VALID,46,VALID,0,
2012-05-02, 04:00:04,VALID,1008.53,VALID,0,VALID,104,VALID,0,VALID,24.0819,VALID,46,VALID,0,
2012-05-02, 04:01:04,VALID,1008.53,VALID,0,VALID,104,VALID,0,VALID,24.1032,VALID,46,VALID,0,